This is the latest recevied weather packets stored in our database for station/object IZ5MJO-13. If no packets are shown the sender has not sent any weather packets the latest 10 day(s).
| Time | Temp. | Humidity | Pressure | Rain* | Wind** | Luminosity | Snow |
|---|---|---|---|---|---|---|---|
| 1777465712 | 27.78° C | 28% | 1004.8 hPa | - | - | - | - |
| 1777464812 | 27.22° C | 25% | 1004.9 hPa | - | - | - | - |
| 1777463914 | 26.67° C | 29% | 1004.8 hPa | - | - | - | - |
| 1777463014 | 25.56° C | 28% | 1004.9 hPa | - | - | - | - |
| 1777462111 | 25.56° C | 30% | 1005 hPa | - | - | - | - |
| 1777461211 | 25.56° C | 33% | 1005.1 hPa | - | - | - | - |
| 1777460310 | 25° C | 31% | 1005 hPa | - | - | - | - |
| 1777459414 | 23.33° C | 33% | 1005.3 hPa | - | - | - | - |
| 1777458514 | 22.78° C | 32% | 1005.3 hPa | - | - | - | - |
| 1777457648 | 22.22° C | 31% | 1005.4 hPa | - | - | - | - |
| 1777457609 | 22.22° C | 31% | 1005.4 hPa | - | - | - | - |
| 1777456710 | 21.67° C | 37% | 1005.5 hPa | - | - | - | - |
| 1777455809 | 21.11° C | 37% | 1005.7 hPa | - | - | - | - |
| 1777454911 | 20.56° C | 38% | 1005.7 hPa | - | - | - | - |
| 1777454009 | 20° C | 38% | 1005.6 hPa | - | - | - | - |
| 1777453109 | 19.44° C | 40% | 1005.6 hPa | - | - | - | - |
| 1777452240 | 18.89° C | 41% | 1005.8 hPa | - | - | - | - |
| 1777452208 | 18.89° C | 41% | 1005.8 hPa | - | - | - | - |
| 1777451310 | 18.33° C | 42% | 1005.6 hPa | - | - | - | - |
| 1777450415 | 17.78° C | 43% | 1005.7 hPa | - | - | - | - |
| 1777449514 | 17.22° C | 45% | 1005.7 hPa | - | - | - | - |
| 1777448614 | 16.11° C | 47% | 1005.7 hPa | - | - | - | - |
| 1777447714 | 16.67° C | 43% | 1005.7 hPa | - | - | - | - |
| 1777446813 | 16.67° C | 44% | 1005.6 hPa | - | - | - | - |
| 1777445913 | 16.11° C | 46% | 1005.4 hPa | - | - | - | - |
* Rain since midnight (hover to see other rain measurements)
** Current wind speed in m/s (hover to see current wind gust speed)